sat.trackr.live / text

‹ back to catalog

STARLINK-33685

NORAD 63465 · 2025-070F

PAYLOAD ACTIVE UNKNOWN

§ Identity

Operator
Country
US
Launch date
2025-04-06
Launch site
AFETR
Launch vehicle
Mass (kg)
RCS (m²)

Purposes: comms

External: N2YO · Heavens-Above · Gunter

§ Orbital elements

Epoch: 2026-05-25T04:25:40.264320Z

Period
94.27 min
Inclination
43.0009°
Eccentricity
0.0001322
Mean motion
15.27592687 rev/d
Perigee alt
482.1 km
Apogee alt
483.9 km
Semi-major
6,861.1 km
B*
4.9326e-4
RAAN
187.9442°
Arg perigee
259.9902°
Mean anomaly
100.0801°
Rev number
6,467

§ Raw data

STARLINK-336851 63465U 25070F   26145.18449380  .00013341  00000+0  49326-3 0  99912 63465  43.0009 187.9442 0001322 259.9902 100.0801 15.27592687 64676

JSON: /api/v1/satellites/63465 · /tle

For live sub-satellite position, see the globe view (requires WebGL).

§ Visibility from observer

Set your observer location to see the next 7 days of passes ≥ 10°. The values pass through the URL so the page stays shareable.

No JS? Fill the form by hand. The geolocation button needs JavaScript.